{"data":{"norad_id":69136,"intl_designator":"2026-110N","name":"STARLINK-37531","alt_names":[],"object_type":"PAYLOAD","status":"ACTIVE","operator":null,"country":"US","launch_date":"2026-05-20","launch_site_code":"AFWTR","launch_vehicle":null,"mission":null,"orbit_class":"UNKNOWN","rcs_meters":null,"size_class":null,"mass_kg":null,"dimensions":null,"purposes":["comms"],"wikipedia_slug":null,"has_3d_model":false,"image_url":null,"decayed_at":null,"tle_current":{"epoch":"2026-09-19T18:19:59.988864Z","epoch_age_seconds":86856,"freshness":"FRESH","line1":"1 69136U 26110N   26262.76388876  .00014918  00000+0  46335-3 0  9992","line2":"2 69136  97.2852  97.8357 0001327  47.1740 312.9614 15.33454931 20102","mean_motion":15.33454931,"eccentricity":0.0001327,"inclination_deg":97.2852,"raan_deg":97.8357,"arg_perigee_deg":47.174,"mean_anomaly_deg":312.9614,"bstar":0.00046335,"rev_number":2010,"period_min":93.905596499073,"perigee_km":464.60547453045,"apogee_km":466.42177940685,"semimajor_km":6843.6506269686,"source":"CELESTRAK","updated_at":"2026-09-20T09:00:44.086606Z"}}}